Tracking 18987 objects as of 25-Feb-2018
HD Live streaming from Space Station
objects crossing your sky now

DELTA 2 R/B

Track DELTA 2 R/B now!
10-day predictions


NORAD ID: 20571
Int'l Code: 1990-034B
Perigee: 492.2 km
Apogee: 1,226.5 km
Inclination: 22.7 °
Period: 102.0 minutes
Semi major axis: 7230 km
RCS: 10.13 m2 (large)
Launch date: April 13, 1990
Source: United States (US)
Launch site: AIR FORCE EASTERN TEST RANGE (AFETR)

Note: This is a ROCKET BODY
aabbcc
Your satellite tracking list
Your tracking list is empty




NASA's NSSDC Master Catalog

Two Line Element Set (TLE):
1 20571U 90034B   18055.52442395 +.00000589 +00000-0 +36817-4 0  9995
2 20571 022.7473 114.7647 0507804 196.0500 162.3302 14.12088433428237
Source of the keplerian elements: AFSPC